Date String (YYYY-MM-DD hh:mm:ss) UTC,Instrument flags,absolute air pressure of the measurement (hPa),sample flow rate (lpm),inlet stack bypass flow (lpm),air temperature of the measurement (°C),ambient temperature measured by the external sensor (°C),aerosol sample conditioner tube jacket temperature (°C),OPC LED temperature (°C),internal box temperature (°C),relative humidity of the measurement (%),span deviation,mass concentration of particles derived from Lorenz-Mie calculation of OPC scattering (μg/m³),mass concentration of particles derived from Lorenz-Mie calculation of OPC scattering (μg/m³),mass concentration of particles derived from Lorenz-Mie calculation of OPC scattering (μg/m³)
DateTimeUTC,F1_M11,P_M11,Q1_M11,Q2_M11,T1_M11,T2_M11,T3_M11,T4_M11,T5_M11,U1_M11,ZSPAN_M11,X0_M11,X2_M11,X1_M11
2024-05-18 01:00:00,SystemResetWarning,0821.1,4.99,000.00,023.2,021.2,000.0,031.8,024.4,015.2,0000.0,0005.08,0002.78,0001.95
2024-05-18 01:01:00,SystemResetWarning,0821.0,4.99,000.00,023.3,021.6,000.0,031.7,024.7,016.0,0000.0,0006.49,0002.79,0001.96
2024-05-18 01:02:00,SystemResetWarning,0821.1,5.00,000.00,023.3,022.0,000.0,031.6,024.9,016.3,0000.0,0006.92,0002.78,0001.96
2024-05-18 01:03:00,SystemResetWarning,0821.1,5.01,000.00,023.4,022.4,000.0,031.6,025.1,015.6,0000.0,0006.93,0002.77,0001.95
2024-05-18 01:04:00,SystemResetWarning,0821.0,4.99,000.00,023.5,022.8,000.0,031.6,025.3,014.9,0000.0,0007.17,0002.87,0001.94
2024-05-18 01:05:00,SystemResetWarning,0821.0,5.00,000.00,023.6,023.1,000.0,031.6,025.5,014.8,0000.0,0007.77,0002.91,0001.96
2024-05-18 01:06:00,SystemResetWarning,0821.1,5.01,000.00,023.7,023.3,000.0,031.7,025.6,014.8,0000.0,0007.98,0002.88,0001.96
2024-05-18 01:07:00,SystemResetWarning,0821.1,5.00,000.00,023.8,023.5,000.0,031.7,025.7,014.6,0000.0,0008.62,0002.91,0001.95
2024-05-18 01:08:00,SystemResetWarning,0821.0,4.99,000.00,023.8,022.5,000.0,031.8,025.1,014.4,0000.0,0008.71,0002.96,0001.96
2024-05-18 01:09:00,SystemResetWarning,0820.9,4.99,000.00,023.4,020.8,000.0,031.8,024.2,014.4,0000.0,0008.69,0002.97,0001.96
2024-05-18 01:10:00,SystemResetWarning,0821.0,5.02,000.00,023.2,020.9,000.0,031.8,024.2,014.7,0000.0,0008.61,0002.95,0001.95
2024-05-18 01:11:00,SystemResetWarning,0821.1,5.00,000.00,023.2,021.3,000.0,031.7,024.5,015.3,0000.0,0008.56,0002.98,0001.95
2024-05-18 01:12:00,SystemResetWarning,0821.1,5.00,000.00,023.3,021.7,000.0,031.7,024.8,015.5,0000.0,0007.91,0003.02,0001.94
2024-05-18 01:13:00,SystemResetWarning,0821.1,5.00,000.00,023.3,022.1,000.0,031.6,025.0,015.5,0000.0,0007.66,0003.04,0001.94
2024-05-18 01:14:00,SystemResetWarning,0821.1,5.00,000.00,023.4,022.5,000.0,031.6,025.2,015.2,0000.0,0007.67,0003.06,0001.95
2024-05-18 01:15:00,SystemResetWarning,0821.1,5.00,000.00,023.5,022.8,000.0,031.6,025.3,014.2,0000.0,0007.60,0003.00,0001.95
2024-05-18 01:16:00,SystemResetWarning,0821.0,5.01,000.00,023.6,023.1,000.0,031.6,025.5,014.2,0000.0,0006.92,0002.95,0001.94
2024-05-18 01:17:00,SystemResetWarning,0821.1,5.00,000.00,023.7,023.4,000.0,031.7,025.6,014.0,0000.0,0006.67,0002.94,0001.94
2024-05-18 01:18:00,SystemResetWarning,0821.1,5.00,000.00,023.8,023.4,000.0,031.7,025.6,013.9,0000.0,0005.72,0002.87,0001.93
2024-05-18 01:19:00,SystemResetWarning,0821.1,4.97,000.00,023.7,021.8,000.0,031.8,024.8,014.0,0000.0,0005.72,0002.86,0001.92
2024-05-18 01:20:00,SystemResetWarning,0821.1,5.03,000.00,023.3,020.5,000.0,031.8,024.1,014.4,0000.0,0005.68,0002.85,0001.92
2024-05-18 01:21:00,SystemResetWarning,0821.1,4.99,000.00,023.2,021.0,000.0,031.8,024.3,014.3,0000.0,0005.55,0002.83,0001.92
2024-05-18 01:22:00,SystemResetWarning,0821.4,4.99,000.00,023.2,021.4,000.0,031.7,024.6,014.8,0000.0,0005.94,0002.82,0001.92
2024-05-18 01:23:00,SystemResetWarning,0821.2,5.01,000.00,023.3,021.8,000.0,031.6,024.8,014.9,0000.0,0006.38,0002.76,0001.92
2024-05-18 01:24:00,SystemResetWarning,0821.1,5.01,000.00,023.3,022.2,000.0,031.6,025.0,015.2,0000.0,0006.26,0002.74,0001.91
2024-05-18 01:25:00,SystemResetWarning,0821.1,5.00,000.00,023.4,022.5,000.0,031.6,025.2,015.2,0000.0,0006.66,0002.72,0001.90
2024-05-18 01:26:00,SystemResetWarning,0821.2,5.00,000.00,023.5,022.9,000.0,031.6,025.4,015.1,0000.0,0007.91,0002.69,0001.88
2024-05-18 01:27:00,SystemResetWarning,0821.2,4.98,000.00,023.6,023.1,000.0,031.6,025.5,015.2,0000.0,0008.04,0002.68,0001.88
2024-05-18 01:28:00,SystemResetWarning,0821.2,4.99,000.00,023.7,023.4,000.0,031.6,025.6,015.3,0000.0,0008.17,0002.70,0001.89
2024-05-18 01:29:00,SystemResetWarning,0821.2,5.02,000.00,023.8,023.5,000.0,031.7,025.7,015.5,0000.0,0008.02,0002.74,0001.91
2024-05-18 01:30:00,SystemResetWarning,0821.2,4.99,000.00,023.8,022.3,000.0,031.8,025.0,015.5,0000.0,0008.06,0002.81,0001.93
2024-05-18 01:31:00,SystemResetWarning,0821.1,5.01,000.00,023.4,020.6,000.0,031.8,024.2,015.9,0000.0,0008.08,0002.80,0001.93
2024-05-18 01:32:00,SystemResetWarning,0821.2,5.01,000.00,023.2,020.8,000.0,031.8,024.2,016.0,0000.0,0008.20,0002.86,0001.94
2024-05-18 01:33:00,SystemResetWarning,0821.2,5.00,000.00,023.2,021.3,000.0,031.7,024.5,016.2,0000.0,0008.55,0002.90,0001.92
2024-05-18 01:34:00,SystemResetWarning,0821.2,4.99,000.00,023.3,021.7,000.0,031.6,024.8,015.9,0000.0,0008.29,0002.90,0001.91
2024-05-18 01:35:00,SystemResetWarning,0821.3,5.00,000.00,023.3,022.1,000.0,031.6,025.0,015.4,0000.0,0008.43,0002.96,0001.92
2024-05-18 01:36:00,SystemResetWarning,0821.3,5.01,000.00,023.4,022.4,000.0,031.6,025.1,015.1,0000.0,0008.29,0003.02,0001.92
2024-05-18 01:37:00,SystemResetWarning,0821.3,5.01,000.00,023.5,022.7,000.0,031.6,025.3,014.8,0000.0,0007.78,0003.00,0001.92
2024-05-18 01:38:00,SystemResetWarning,0821.3,5.00,000.00,023.6,023.0,000.0,031.6,025.5,014.6,0000.0,0008.25,0003.08,0001.93
2024-05-18 01:39:00,SystemResetWarning,0821.3,5.00,000.00,023.7,023.3,000.0,031.6,025.6,014.7,0000.0,0008.40,0003.10,0001.93
2024-05-18 01:40:00,SystemResetWarning,0821.4,4.99,000.00,023.8,023.5,000.0,031.7,025.7,014.6,0000.0,0008.33,0003.09,0001.93
2024-05-18 01:41:00,SystemResetWarning,0821.4,4.99,000.00,023.9,023.6,000.0,031.7,025.9,014.5,0000.0,0008.37,0003.10,0001.92
2024-05-18 01:42:00,SystemResetWarning,0821.4,5.00,000.00,023.9,022.9,000.0,031.8,025.4,014.9,0000.0,0008.40,0003.11,0001.92
2024-05-18 01:43:00,SystemResetWarning,0821.3,5.01,000.00,023.5,021.0,000.0,031.9,024.3,015.1,0000.0,0008.34,0003.07,0001.92
2024-05-18 01:44:00,SystemResetWarning,0821.3,5.00,000.00,023.3,020.7,000.0,031.9,024.2,015.6,0000.0,0007.91,0003.04,0001.95
2024-05-18 01:45:00,SystemResetWarning,0821.4,5.01,000.00,023.2,021.2,000.0,031.8,024.5,015.6,0000.0,0007.70,0003.10,0001.97
2024-05-18 01:46:00,SystemResetWarning,0821.8,5.01,000.00,023.3,021.6,000.0,031.7,024.7,015.8,0000.0,0007.64,0003.11,0001.97
2024-05-18 01:47:00,SystemResetWarning,0822.1,4.99,000.00,023.4,022.0,000.0,031.7,025.0,016.0,0000.0,0008.29,0003.10,0001.97
2024-05-18 01:48:00,SystemResetWarning,0822.1,5.00,000.00,023.4,022.4,000.0,031.6,025.2,016.0,0000.0,0007.95,0003.12,0001.98
2024-05-18 01:49:00,SystemResetWarning,0821.9,5.02,000.00,023.5,022.7,000.0,031.7,025.3,015.9,0000.0,0007.39,0003.08,0001.97
2024-05-18 01:50:00,SystemResetWarning,0821.9,5.00,000.00,023.6,023.0,000.0,031.7,025.5,015.8,0000.0,0007.34,0003.09,0001.97
2024-05-18 01:51:00,SystemResetWarning,0822.0,4.99,000.00,023.7,023.2,000.0,031.7,025.6,015.7,0000.0,0008.04,0003.12,0001.97
2024-05-18 01:52:00,SystemResetWarning,0821.7,5.00,000.00,023.8,023.4,000.0,031.7,025.8,015.6,0000.0,0008.94,0003.06,0001.96
2024-05-18 01:53:00,SystemResetWarning,0821.6,5.00,000.00,023.9,023.6,000.0,031.8,025.9,015.5,0000.0,0009.60,0003.01,0001.95
2024-05-18 01:54:00,SystemResetWarning,0821.6,5.00,000.00,024.0,023.2,000.0,031.9,025.7,015.3,0000.0,0009.64,0003.05,0001.94
2024-05-18 01:55:00,SystemResetWarning,0821.9,5.01,000.00,023.7,021.3,000.0,031.9,024.6,015.6,0000.0,0009.71,0003.07,0001.93
2024-05-18 01:56:00,SystemResetWarning,0821.8,5.01,000.00,023.4,020.5,000.0,031.9,024.2,016.0,0000.0,0009.67,0003.01,0001.92
2024-05-18 01:57:00,SystemResetWarning,0822.0,5.02,000.00,023.3,021.1,000.0,031.9,024.4,016.1,0000.0,0009.64,0002.98,0001.93
2024-05-18 01:58:00,SystemResetWarning,0821.6,5.00,000.00,023.3,021.5,000.0,031.8,024.7,016.2,0000.0,0009.08,0003.01,0001.94
2024-05-18 01:59:00,SystemResetWarning,0821.8,5.00,000.00,023.4,021.9,000.0,031.7,024.9,016.2,0000.0,0009.14,0003.06,0001.95
